{"data":{"norad_id":43926,"epoch":"2026-09-20T04:42:03.316608Z","epoch_age_seconds":41718,"freshness":"FRESH","line1":"1 43926U 19002E   26263.19587172  .00000167  00000+0  48110-4 0  9996","line2":"2 43926  86.4279 345.4949 0002236  84.8019 275.3435 14.38607007403881","mean_motion":14.38607007,"eccentricity":0.0002236,"inclination_deg":86.4279,"raan_deg":345.4949,"arg_perigee_deg":84.8019,"mean_anomaly_deg":275.3435,"bstar":4.811e-5,"rev_number":40388,"period_min":100.09682929342,"perigee_km":761.50783337938,"apogee_km":764.70139662961,"semimajor_km":7141.2416150045,"source":"CELESTRAK","updated_at":"2026-09-20T09:00:36.355769Z"}}